Regional Weather Roundup
Issued by NWS

Home | Current Version | Previous Version | Graphics & Text | Print | Product List | Glossary On
Versions: 1 2 3 4 5 6 7 8 9 10 11 12 13 14 15 16 17 18 19 20 21 22 23 24 25 26 27
000
ASUS45 KBOU 291807
RWRCO

WEATHER ROUNDUP FOR COLORADO
NATIONAL WEATHER SERVICE DENVER/BOULDER CO
1200 PM MDT FRI JUL 29 2016

NOTE: "FAIR" INDICATES FEW OR NO CLOUDS BELOW 12000 FEET WITH NO
SIGNIFICANT WEATHER AND/OR OBSTRUCTIONS TO VISIBILITY.

COZ001>005-013-030-031-291900-
...NORTHWEST COLORADO...

CITY           SKY/WX    TMP DP  RH WIND       PRES   REMARKS
CRAIG          FAIR      82  40  22 VRB3      30.23F
HAYDEN         FAIR      79  39  24 E3        30.25F
MEEKER         FAIR      82  44  26 SW5       30.23F
MOUNT WERNER   NOT AVBL
STEAMBOAT SPGS FAIR      75  42  29 SW3       30.28S
WALDEN         FAIR      73  28  19 N6        30.37F
$$

COZ006>008-011-291900-
...WEST CENTRAL VALLEYS...

CITY           SKY/WX    TMP DP  RH WIND       PRES   REMARKS
GRAND JUNCTION FAIR      91  34  13 S6        30.09F
MONTROSE       FAIR      88  34  14 VRB5      30.19S
EAGLE          SUNNY     82  34  17 CALM      30.25F
RIFLE          FAIR      88  39  17 VRB5      30.15F
DELTA          NOT AVBL
NUCLA          NOT AVBL
$$

COZ017>023-064>068-291900-
...SOUTHWEST COLORADO...

CITY           SKY/WX    TMP DP  RH WIND       PRES   REMARKS
DURANGO        FAIR      84  40  21 W6        30.24F
CORTEZ         FAIR      92  35  13 VRB3      30.16F
PAGOSA SPRINGS FAIR      83  32  16 CALM      30.33F
TELLURIDE      FAIR      80  30  16 NW5       30.47F
WOLF CREEK PAS CLOUDY    61  32  33 W7G17     30.71S
$$

COZ009-010-012-014-032>034-037-058>063-291900-
...CENTRAL COLORADO...

CITY           SKY/WX    TMP DP  RH WIND       PRES   REMARKS
ASPEN          FAIR      81  27  14 N10G18    30.33S
BUENA VISTA    FAIR      81  26  13 SE6       30.31F
COPPER MTN     FAIR      61  21  21 NW20      30.67S
BERTHOUD PASS  FAIR      52  37  58 NW21      30.69S
COTTONWOOD PAS FAIR      77   3   6 S6G20     30.48S
GUNNISON       FAIR      79  32  18 S7        30.34F
KREMMLING      FAIR      77  32  19 S3        30.32F
LEADVILLE      FAIR      70  20  15 NW13G25   30.48S
MONARCH PASS   FAIR      63  27  25 MISG      30.76S
SALIDA         FAIR      83  30  14 E3        30.35F
SUNLIGHT       FAIR      70  32  24 MISG      30.62S
WILKERSON PASS FAIR      64  27  24 N6        30.63R
$$

COZ069>075-291900-
...SAN LUIS VALLEY/SANGRE DE CRISTO MOUNTAINS...

CITY           SKY/WX    TMP DP  RH WIND       PRES   REMARKS
ALAMOSA        FAIR      80  38  22 VRB3      30.30F
LA VETA PASS   FAIR      70  43  37 E5        30.52S
SAGUACHE       FAIR      82  25  12 N12G25    30.32F
$$

COZ035-036-038>040-291900-
...NORTHERN COLORADO FRONT RANGE...

CITY           SKY/WX    TMP DP  RH WIND       PRES   REMARKS
DENVER INTL AP PTSUNNY   80  57  45 NE9       30.19S
DMNS CITY PARK   N/A     78  57  48 N7G13     30.19S
AURORA         PTSUNNY   78  58  49 VRB7      30.21S
FRONT RANGE AP PTSUNNY   77  57  50 N5        30.20S
ERIE MUNI ARPT PTSUNNY   79  57  47 E5        30.19R
BOULDER MUN AP NOT AVBL
CENTENNIAL     PTSUNNY   75  56  51 NW7       30.22S
BROOMFIELD     PTSUNNY   77  57  50 VRB6      30.23R
LONGMONT       NOT AVBL
$$

COZ041-046-047-076>085-087-088-291900-
...PIKES PEAK/PALMER DIVIDE AND SOUTHERN FOOTHILLS...

CITY           SKY/WX    TMP DP  RH WIND       PRES   REMARKS
COLO. SPRINGS  FAIR      71  57  61 S6        30.26S
A. F. ACADEMY  MOSUNNY   74  55  51 S10       30.26S
SCHRIEVER AFB  NOT AVBL
ELLICOTT       NOT AVBL
FALCON         NOT AVBL
FORT CARSON    FAIR      71  57  63 S6        30.23S
LIMON          FAIR      76  54  46 SE12      30.21F
MONUMENT HILL  FAIR      72  54  53 W6        30.31S
TRINIDAD       NOT AVBL
$$

COZ042>045-048>051-090-091-291900-
...NORTHEAST COLORADO...

CITY           SKY/WX    TMP DP  RH WIND       PRES   REMARKS
GREELEY ARPT   FAIR      79  59  50 E6        30.18F
AKRON          CLOUDY    71  56  58 SE18      30.19F
BURLINGTON     FAIR      74  61  63 E14       30.18F
WRAY           FAIR      81  54  39 E7        30.15F
STERLING       NOT AVBL
HOLYOKE        NOT AVBL
FORT MORGAN    NOT AVBL
$$

COZ086-089-092>099-291900-
...SOUTHEAST COLORADO...

CITY           SKY/WX    TMP DP  RH WIND       PRES   REMARKS
PUEBLO         FAIR      79  57  46 SE9       30.16S
LA JUNTA       FAIR      80  58  46 E12       30.14S
LAMAR          FAIR      78  63  59 E12G20    30.13S
SPRINGFIELD      N/A     78  60  53 SE15      30.16F
$$




USA.gov is the U.S. government's official web portal to all federal, state and local government web resources and services.